Regional Weather Roundup
Issued by NWS Charleston, SC

Current Version | Previous Version | Text Only | Print | Product List | Glossary Off
Versions: 1 2 3 4 5 6 7 8 9 10 11 12 13 14 15 16 17 18 19 20 21 22 23 24 25 26 27 28 29 30 31 32 33 34 35 36 37 38 39 40 41 42 43 44 45 46 47 48 49 50

000
ASUS42 KCHS 160010
RWRCHS

REGIONAL WEATHER ROUNDUP
NATIONAL WEATHER SERVICE CHARLESTON SC
800 PM EDT MON SEP 15 2014

NOTE: "FAIR" INDICATES FEW OR NO CLOUDS BELOW 12,000 FEET WITH NO
SIGNIFICANT WEATHER AND/OR OBSTRUCTIONS TO VISIBILITY.

NOT ALL STATIONS ARE QUALITY CONTROLLED BY THE NATIONAL
WEATHER SERVICE. USE DATA WITH CAUTION...ESPECIALLY
DEWPOINT OBSERVATIONS.

SCZ027-030-031-034>040-042>050-160100-
...SOUTH CAROLINA...

CITY           SKY/WX    TMP DP  RH WIND       PRES   REMARKS
N CHARLESTON   RAIN      77  74  90 CALM      30.12R
6HR MIN TEMP:  75; 6HR MAX TEMP:  89; 6HR PCP:  1.01;

WATERFRONT PRK   N/A     81 N/A N/A NE5         N/A
FORT JOHNSON   NOT AVBL
MOUNT PLEASANT LGT RAIN  75  75 100 CALM      30.12R
JOHNS ISLAND   DRIZZLE   75  75 100 CALM      30.12R
PINOPOLIS        N/A     77  73  88 E6        30.05R
MONCKS CORNER  RAIN      75  75 100 CALM      30.12R
SUMMERVILLE    NOT AVBL
BEAUFORT MCAS  CLOUDY    78  73  84 NW8       30.11R
6HR MIN TEMP:  79; 6HR MAX TEMP:  86; 6HR PCP: TRACE;

BEAUFORT ARPT  CLOUDY    79  77  94 CALM      30.11R
HILTON HEAD IS MOCLDY    79  75  89 CALM      30.12R
GEORGETOWN     NOT AVBL
WALTERBORO     CLOUDY    77 N/A N/A E6        30.13R
ORANGEBURG     CLOUDY    76  71  85 NE3       30.13R
6HR MIN TEMP:  75; 6HR MAX TEMP:  79; 6HR PCP:  0.03;

BARNWELL       CLOUDY    75  73  94 NE5       30.13R
AIKEN          CLOUDY    73  73 100 CALM      30.17S
MANNING        CLOUDY    77 N/A N/A CALM      30.13R
KINGSTREE      NOT AVBL
COLUMBIA       CLOUDY    75  69  81 CALM      30.13R
6HR MIN TEMP:  73; 6HR MAX TEMP:  76; 6HR PCP: TRACE;

SUMTER         CLOUDY    75  70  83 CALM      30.12R
6HR MIN TEMP:  74; 6HR MAX TEMP:  78; 6HR PCP: TRACE;

FLORENCE       CLOUDY    75  70  84 SE6       30.13R
6HR MIN TEMP:  75; 6HR MAX TEMP:  79;

MYRTLE BEACH   MOCLDY    77  70  78 E7        30.12S
N MYRTLE BEACH MOCLDY    73  69  87 N3        30.12R
6HR MIN TEMP:  73; 6HR MAX TEMP:  77;


$$

GAZ063-065-086>088-099>101-113>116-118-119-134-136>141-150-160100-
...GEORGIA...

CITY           SKY/WX    TMP DP  RH WIND       PRES   REMARKS
SAVANNAH ARPT  MOCLDY    76  73  91 N3        30.12R
6HR MIN TEMP:  75; 6HR MAX TEMP:  88; 6HR PCP:  0.25;

HUNTER AAF     MOCLDY    77  77 100 SW1       30.10R
6HR MIN TEMP:  73; 6HR MAX TEMP:  78; 6HR PCP:  0.60;

FORT STEWART   MOCLDY    76  74  93 CALM      30.11R
6HR MIN TEMP:  75; 6HR MAX TEMP:  82; 6HR PCP:  0.93;

STATESBORO     NOT AVBL
SYLVANIA       CLEAR     76  75  96 CALM      30.11S
CLAXTON        NOT AVBL
THOMSON        CLOUDY    76  76 100 CALM      30.18S
AUGUSTA-BUSH   CLOUDY    75  72  90 CALM      30.12R
6HR MIN TEMP:  73; 6HR MAX TEMP:  76;

AUGUSTA-DANIEL CLOUDY    76  72  87 CALM      30.14R
SWAINSBORO     FAIR      81  81 100 NE5       30.11S HX  91
VIDALIA        MOCLDY    79  73  83 SE3       30.11R
ALMA           MOCLDY    75  73  93 SE13G20   30.13R
6HR MIN TEMP:  74; 6HR MAX TEMP:  91; 6HR PCP:  0.25;

WAYCROSS       HVY RAIN  76  75  97 E7        30.15R
JESUP          LGT RAIN  79  77  94 CALM      30.12R
BRUNSWICK      CLOUDY    79  75  89 CALM      30.11S
SAINT SIMONS   CLOUDY    80  74  81 SE5       30.10R
6HR MIN TEMP:  80; 6HR MAX TEMP:  87; 6HR PCP: TRACE;


$$

SCZ027-028-034-036>038-045-046-048>050-GAZ119-141-160100-
...LAKE AND SUPPLEMENTAL COASTAL OBSERVATIONS...

STATION/POSITION TIME  TEMP    WIND        PRES    WAVE   SWELL
                       AIR SEA DIR/SP/G            HT/PER HT/PER/DIR
                 (UTC) (F)     (DEG/KT/KT) (MB)    (FT/S) (FT/S/D)
UPR LAKE MARION  NOT AVBL
WINYAH BAY       2300   78     110/  5     1019.0S
LAKE MURRAY      2300   74     110/  3/  3 1019.6S
ACE BASIN NERRS  2300   79     100/  2     1019.0F
FORT PULASKI     0000   80     110/  4/  5 1019.5R
SAPELO ISLAND    2300   80      40/  3     1019.0S

$$

ANZ835-935-AMZ111-154-330-350-352-354-374-450-454-472-160100-
...C-MAN AND BUOY OBSERVATIONS...

STATION/POSITION TIME  TEMP    WIND        PRES    WAVE   SWELL
                       AIR SEA DIR/SP/G            HT/PER HT/PER/DIR
                 (UTC) (F)     (DEG/KT/KT) (MB)    (FT/S) (FT/S/D)
FOLLY BEACH CMAN 2300   79      70/  7/  8 1019.9F
BUOY 41004       0000   80 83  100/ 10/ 10 1018.7F   2/ 5   2/ 5
BUOY 41008       0000   83 85  120/  8/  8 1019.5R   2/ 9   2/120/ 9
5E ST. MARYS GA  0000      85                N/A     2/ 4
FRYING PAN BUOY  NOT AVBL
BUOY 41025       0000   73     360/ 10/ 14 1019.4F   3/ 8   3/ 40/ 8
CAPE LOOKOUT NC  2300   74      60/  7/  9 1019.6F
BUOY 41002       NOT AVBL
BUOY 41010       0000   83 85  180/  2/  2 1020.0R   2/ 8   2/100/ 8
BUOY 41012       NOT AVBL
ST AUGUSTINE FL  0000   78     280/  3/  5 1020.5R
CAPERS NEARSHORE 2300   77     110/ 10/ 12   N/A
FRIPP NEARSHORE  NOT AVBL


$$



USA.gov is the U.S. government's official web portal to all federal, state and local government web resources and services.